Regional Weather Roundup
Issued by NWS

Home | Current Version | Previous Version | Text Only | Print | Product List | Glossary Off
Versions: 1 2 3 4 5 6 7 8 9 10 11 12 13 14 15 16 17 18 19 20 21 22 23 24 25 26 27 28 29 30 31 32 33 34 35 36 37 38 39 40 41 42 43 44 45 46 47 48 49 50

000
ASUS45 KBOU 090310
RWRCO

WEATHER ROUNDUP FOR COLORADO
NATIONAL WEATHER SERVICE DENVER/BOULDER CO
900 PM MDT TUE JUL 08 2014

NOTE: "FAIR" INDICATES FEW OR NO CLOUDS BELOW 12000 FEET WITH NO
SIGNIFICANT WEATHER AND/OR OBSTRUCTIONS TO VISIBILITY.

COZ001>005-013-030-031-090400-
...NORTHWEST COLORADO...

CITY           SKY/WX    TMP DP  RH WIND       PRES   REMARKS
CRAIG          MOCLDY    67  42  40 CALM      30.12S
HAYDEN         MOCLDY    75  37  25 CALM      30.16R
MEEKER         MOCLDY    77  40  26 W10       30.15S
MOUNT WERNER   MOCLDY    63  30  29 NE9       30.54S
STEAMBOAT SPGS MOCLDY    71  40  32 NE8       30.19R
WALDEN         CLEAR     63  37  39 NE8       30.32R
$$

COZ006>008-011-090400-
...WEST CENTRAL VALLEYS...

CITY           SKY/WX    TMP DP  RH WIND       PRES   REMARKS
GRAND JUNCTION MOCLDY    85  40  20 S3        30.01R
MONTROSE       MOCLDY    80  41  24 S10       30.15R
EAGLE          PTCLDY    73  45  35 E3        30.19R
RIFLE          PTCLDY    81  37  20 NW16      30.09R
DELTA          MOCLDY    85  42  22 E8        30.07R
NUCLA          MOCLDY    77  43  29 E8        30.20R
$$

COZ017>023-064>068-090400-
...SOUTHWEST COLORADO...

CITY           SKY/WX    TMP DP  RH WIND       PRES   REMARKS
DURANGO        CLOUDY    61  53  75 E12       30.36R
CORTEZ         CLEAR     72  50  45 SE12      30.22R
PAGOSA SPRINGS CLOUDY    63  46  54 CALM      30.45R
TELLURIDE      MOCLDY    57  48  72 E7        30.45R
WOLF CREEK PAS NOT AVBL
$$

COZ009-010-012-014-032>034-037-058>063-090400-
...CENTRAL COLORADO...

CITY           SKY/WX    TMP DP  RH WIND       PRES   REMARKS
ASPEN          MOCLDY    74  36  25 SE9       30.29R
BUENA VISTA    CLOUDY    61  47  61 E7        30.40R
COPPER MTN     PTCLDY    55  36  47 S20G25    30.66R
BERTHOUD PASS  MOCLDY    43  30  61 SE18      30.71R
COTTONWOOD PAS CLOUDY    57  41  54 W15G23    30.52F
GUNNISON       NOT AVBL
KREMMLING      CLEAR     73  30  20 N6        30.25R
LEADVILLE      MOCLDY    56  43  61 S10       30.49R
MONARCH PASS   CLOUDY    46  41  81 S15       30.80R
SALIDA         CLOUDY    67  51  57 NW9       30.46R
SUNLIGHT       PTCLDY    61  34  36 CALM      30.56R
WILKERSON PASS MOCLDY    46  41  81 SW10      30.64S
$$

COZ069>075-090400-
...SAN LUIS VALLEY/SANGRE DE CRISTO MOUNTAINS...

CITY           SKY/WX    TMP DP  RH WIND       PRES   REMARKS
ALAMOSA        MOCLDY    60  47  61 SE13      30.40R
LA VETA PASS   CLOUDY    52  37  58 E8        30.61R
SAGUACHE       NOT AVBL
$$

COZ035-036-038>040-090400-
...NORTHERN COLORADO FRONT RANGE...

CITY           SKY/WX    TMP DP  RH WIND       PRES   REMARKS
DENVER INTL AP MOCLDY    69  57  65 S8        30.19R
DMNS CITY PARK   N/A     73  57  56 SE5G10    30.19R
AURORA         MOCLDY    71  56  59 S9        30.22R
FRONT RANGE AP NOT AVBL
ERIE MUNI ARPT MOCLDY    73  59  60 NE7       30.17R
BOULDER MUN AP PTCLDY    72  57  60 N3        30.18R
CENTENNIAL     PTCLDY    72  54  53 S8        30.22R
BROOMFIELD     MOCLDY    75  57  53 CALM      30.21R
FORT COLLINS   CLEAR     72  57  60 E12       30.17R
LONGMONT       PTCLDY    75  58  55 NE6       30.18R
$$

COZ041-046-047-076>085-087-088-090400-
...PIKES PEAK/PALMER DIVIDE AND SOUTHERN FOOTHILLS...

CITY           SKY/WX    TMP DP  RH WIND       PRES   REMARKS
COLO. SPRINGS  CLOUDY    63  54  72 S10       30.29S
A. F. ACADEMY  CLOUDY    61  54  78 S8        30.31R
ELLICOTT       NOT AVBL
FALCON         CLOUDY    62  51  69 S12       30.34R
FORT CARSON    CLOUDY    63  56  76 S9        30.26R
LIMON          MOCLDY    67  55  65 SE6       30.22S
MONUMENT HILL  MOCLDY    61  50  67 S12       30.32R
TRINIDAD       CLOUDY    68  49  50 N20G28    30.31R
$$

COZ042>045-048>051-090-091-090400-
...NORTHEAST COLORADO...

CITY           SKY/WX    TMP DP  RH WIND       PRES   REMARKS
GREELEY ARPT   NOT AVBL
AKRON          CLEAR     69  57  65 SE8       30.18R
BURLINGTON     MOCLDY    70  60  70 SE8       30.18R
WRAY           MOCLDY    76  56  51 E3        30.14S
STERLING       CLEAR     73  59  60 SE7       30.14R
HOLYOKE        CLEAR     68  61  77 S7        30.14S
FORT MORGAN    CLEAR     70  56  61 E9        30.17R
$$

COZ086-089-092>099-090400-
...SOUTHEAST COLORADO...

CITY           SKY/WX    TMP DP  RH WIND       PRES   REMARKS
PUEBLO         CLOUDY    69  54  58 W13       30.19R
LA JUNTA       CLOUDY    82  52  35 SE16      30.13R
LAMAR          CLOUDY    80  51  36 SE12      30.12R
SPRINGFIELD      N/A     73  54  51 SE10      30.19R
$$


USA.gov is the U.S. government's official web portal to all federal, state and local government web resources and services.